Theta_e
356 356 355 357 357 357 357 357 357 358 361 359 359 358 356 356 358 357 355 353 352 348 348 347 346 346 349 348 349 349 352 350 350 351 351 353 356 360 360 359 359 359 358 358 359 359 359 358 357 357 356 356 356 356 356 356 356 355 356 355 355 355 355 355 355 354 355 354 354 354 353 353 353 352 352 352 352 352 353 353 352 353 352 353 352
356 356 356 356 357 356 357 357 357 357 361 357 359 358 356 354 355 354 354 353 351 351 350 348 347 347 348 348 348 349 350 349 349 350 351 354 355 360 362 360 359 358 358 358 358 358 357 357 357 357 357 357 357 356 356 356 356 356 356 356 355 355 355 355 355 355 354 354 354 354 353 353 353 353 352 352 352 353 354 353 353 354 353 353 353
355 356 356 355 356 357 356 358 358 357 356 356 359 357 356 353 356 352 351 350 350 351 349 349 347 348 349 347 347 348 349 349 349 349 351 353 355 357 360 361 360 358 358 358 358 357 358 357 356 357 357 357 357 356 356 356 356 356 356 356 356 356 355 355 355 354 354 354 354 354 354 353 354 353 353 353 354 354 354 354 354 353 353 353 353
355 357 356 356 355 357 356 355 355 357 357 355 357 360 356 354 356 352 351 351 350 350 352 348 347 348 347 346 346 347 348 348 347 349 351 352 353 354 355 358 360 359 358 358 358 358 357 357 357 357 356 356 356 356 356 356 356 356 356 356 356 356 355 355 354 354 354 354 354 354 354 354 354 354 354 354 354 354 354 354 353 353 354 353 353
356 359 363 357 357 357 356 354 354 357 356 355 358 359 358 357 357 358 354 352 351 350 352 348 348 348 348 345 345 346 348 347 347 349 350 353 355 353 352 356 355 359 359 358 358 358 358 358 357 357 357 357 356 356 356 356 356 356 355 356 356 356 356 355 355 355 354 354 354 354 354 354 354 354 354 354 354 354 354 354 354 354 354 354 354
358 358 359 358 358 357 357 360 359 359 361 359 356 354 353 354 352 356 360 356 352 351 350 346 347 347 347 346 345 346 348 348 348 349 351 354 355 353 353 354 354 354 356 359 358 359 359 359 358 358 357 357 356 357 356 356 356 355 355 355 356 356 356 356 355 355 355 355 355 355 354 355 355 355 355 355 355 355 354 355 354 354 353 354 354
361 358 358 357 357 357 354 355 360 364 361 359 355 356 356 354 356 351 348 347 344 344 347 346 345 345 346 346 344 346 350 349 350 350 353 354 355 355 354 353 353 354 356 354 360 359 359 359 359 358 357 358 357 357 357 356 357 356 356 356 355 355 355 355 355 355 355 355 355 355 355 355 355 355 355 354 353 352 353 352 353 354 352 352 353
360 360 359 358 359 358 355 357 358 360 358 360 357 355 355 354 356 350 340 336 342 335 339 339 339 343 345 345 344 350 348 349 350 352 354 354 354 354 354 354 354 354 359 352 353 358 359 358 358 357 358 356 356 357 358 357 358 356 356 356 355 355 355 354 354 354 354 354 354 354 354 354 353 354 355 353 353 352 352 353 353 352 353 352 353
361 360 359 359 358 358 359 360 363 360 357 358 357 360 355 357 352 357 339 336 329 330 334 334 335 338 341 344 345 349 348 349 351 353 354 352 352 354 354 353 356 362 355 353 352 353 358 359 358 359 358 357 357 357 357 352 355 356 356 356 355 355 354 355 354 354 354 354 354 353 354 354 353 354 354 354 353 352 352 351 352 352 352 353 351
360 359 358 359 357 357 357 360 362 359 359 355 353 353 353 355 351 348 345 332 327 330 335 337 339 338 340 343 346 347 347 349 352 359 351 351 351 352 354 354 356 355 354 354 353 353 353 357 359 359 359 358 358 358 357 356 356 356 354 356 355 354 355 355 355 355 355 355 354 354 353 353 352 352 352 353 352 352 353 351 351 352 352 352 352
359 360 359 360 354 353 354 360 361 359 359 355 353 353 356 351 349 340 345 332 327 333 336 339 339 340 340 343 345 346 347 349 355 351 351 352 352 355 355 353 355 353 354 354 354 353 353 352 352 353 355 358 358 358 358 357 356 356 356 356 356 355 355 355 353 354 354 354 354 354 354 353 353 353 353 352 352 353 353 353 352 352 352 352 352
358 359 358 359 353 353 354 361 361 360 355 352 351 352 352 352 349 341 339 342 340 335 338 341 339 338 342 340 343 344 346 353 350 350 352 352 353 355 352 353 354 353 355 355 356 354 353 352 356 353 353 356 358 357 357 357 357 356 356 356 355 355 355 355 350 354 354 354 353 354 354 354 353 353 353 353 353 353 353 352 352 352 352 352 352
359 359 356 363 357 355 356 359 359 359 354 352 353 354 353 352 349 352 340 337 336 331 339 337 335 332 336 336 338 343 353 351 348 349 350 351 354 353 352 353 352 352 354 355 355 355 353 353 353 353 353 351 356 358 357 357 356 356 355 356 355 355 355 355 354 354 355 354 353 353 352 352 352 352 352 352 352 352 352 352 352 352 352 352 351
360 359 358 358 358 357 356 357 358 358 355 354 352 358 357 355 347 342 344 338 332 332 339 331 330 328 328 331 333 334 347 345 346 348 350 352 353 352 352 352 351 351 353 354 354 354 354 353 353 353 352 352 352 350 352 354 355 356 355 355 356 355 354 354 355 354 354 353 353 352 352 351 351 352 352 352 351 351 351 351 350 351 351 351 351
360 360 359 358 357 356 357 356 358 360 357 352 354 352 353 352 345 341 338 335 339 337 335 331 332 333 333 329 324 326 335 338 343 347 350 351 351 351 352 351 351 351 351 352 352 352 353 353 352 351 351 351 351 350 352 356 353 357 355 355 355 356 354 354 354 354 352 352 353 353 352 352 352 351 351 350 350 351 351 351 351 351 351 350 349
360 359 359 359 357 355 356 356 358 361 357 353 352 350 352 349 345 346 336 330 331 329 341 338 338 333 326 325 325 324 322 327 334 341 348 350 350 350 351 350 350 350 350 350 351 352 352 351 349 350 350 350 351 349 351 347 355 357 356 356 355 356 354 354 353 352 351 352 352 351 351 350 350 349 349 348 349 349 349 351 350 350 350 348 348
360 360 360 358 357 356 355 357 359 359 357 355 353 352 353 351 348 347 336 333 334 326 335 344 340 337 335 329 325 322 322 325 333 333 341 344 347 348 351 348 348 347 349 349 349 350 350 350 349 349 350 349 350 349 348 351 353 357 354 357 356 356 355 353 353 350 350 352 351 350 350 349 349 348 346 347 347 348 348 348 347 346 346 346 345
360 360 361 359 357 357 357 357 358 359 358 357 356 354 352 350 350 348 339 339 332 327 334 345 346 350 340 333 329 324 325 328 326 324 338 343 343 345 347 346 346 347 347 346 347 348 351 350 349 349 349 348 348 348 347 347 351 348 348 353 355 354 354 350 347 346 348 348 348 347 346 345 345 347 347 346 347 346 345 345 344 343 343 342 342
360 360 360 360 358 358 357 358 358 359 361 356 355 354 353 351 350 345 340 346 329 328 336 338 337 340 347 346 347 344 336 329 324 325 324 330 337 339 340 338 343 346 346 345 346 347 349 351 350 349 349 348 347 347 345 346 355 351 357 356 354 353 350 349 347 347 348 347 346 347 346 346 347 347 346 344 344 344 343 344 345 343 341 340 340
359 359 359 360 359 358 358 359 359 359 361 357 355 355 353 352 352 346 343 343 331 332 334 337 333 334 343 342 348 344 339 336 331 327 325 324 326 330 334 335 339 344 345 345 345 347 347 348 349 349 348 347 346 346 345 346 346 349 353 355 353 352 349 347 346 345 346 348 348 346 346 347 347 346 345 345 344 343 343 343 344 343 342 340 340
358 359 359 359 361 359 359 359 359 359 363 359 357 356 353 351 348 344 342 340 334 333 335 334 332 332 336 335 337 334 336 339 340 335 329 323 324 326 327 332 334 335 340 343 344 346 347 347 348 350 349 347 345 345 346 346 346 346 353 355 353 351 349 348 348 345 345 346 347 347 347 346 345 346 346 345 343 343 343 343 342 342 342 341 340
358 358 358 358 360 360 359 359 359 360 362 359 358 355 354 351 349 346 343 339 339 339 336 336 335 335 335 334 335 334 330 330 332 331 331 327 323 324 326 327 326 329 335 337 340 343 344 344 347 349 347 345 343 344 345 346 346 346 350 356 353 351 350 349 348 347 347 346 346 345 346 346 345 344 344 344 343 342 342 342 341 340 341 340 340
357 358 358 358 359 361 360 360 360 362 362 359 358 357 355 351 348 346 344 341 339 337 342 339 339 341 336 334 334 333 330 327 329 331 329 326 326 328 330 329 328 327 331 334 338 339 340 340 342 345 344 343 342 343 343 344 349 349 351 355 354 352 351 350 350 349 349 349 347 346 346 345 345 345 343 342 343 343 342 341 341 343 344 344 344
355 357 357 357 359 359 360 360 360 360 360 359 359 358 356 352 347 347 345 343 342 341 339 338 340 341 337 335 334 334 334 331 331 333 332 329 329 325 327 331 329 328 333 332 336 335 336 336 339 342 341 340 340 342 343 343 345 351 351 355 353 351 351 352 352 351 350 349 348 348 348 346 345 344 344 343 343 343 343 344 344 345 345 344 344
353 354 356 357 358 359 359 359 359 360 361 359 358 358 356 352 347 347 345 344 344 339 336 337 341 338 337 337 336 337 336 335 334 335 334 333 331 327 331 332 326 327 330 331 331 333 335 336 335 337 338 337 339 340 341 341 340 348 352 351 352 349 349 351 351 349 349 348 348 349 348 349 349 348 347 344 343 343 344 344 344 344 345 345 344
353 353 356 357 359 360 360 359 360 360 360 359 359 358 356 353 349 347 346 346 345 342 338 337 338 341 339 337 336 336 336 338 337 337 335 335 330 330 328 328 329 327 328 330 330 330 330 333 335 334 335 336 338 338 338 339 338 347 352 341 344 346 347 347 348 347 347 348 346 348 349 349 349 348 347 346 345 345 345 345 346 346 345 345 345
354 354 356 357 358 359 360 359 360 360 361 360 360 359 357 354 352 348 348 348 346 345 340 340 339 339 340 338 338 335 335 337 336 337 335 334 334 331 330 326 325 327 328 329 328 328 328 330 334 333 334 335 336 337 337 336 340 344 350 340 332 344 344 344 345 345 344 345 346 346 347 348 349 349 349 349 348 348 348 348 347 347 346 346 347
355 355 355 357 357 359 359 359 360 360 360 360 359 359 356 354 353 350 347 351 347 345 343 341 340 338 342 341 340 338 336 336 338 336 334 335 335 333 331 327 324 321 323 325 326 327 330 329 332 333 334 335 336 338 340 340 337 345 350 338 330 335 343 343 342 342 342 342 343 345 346 347 347 348 349 349 350 350 349 348 348 348 348 348 348
355 356 355 357 357 358 359 359 360 360 360 360 359 359 357 355 354 352 348 349 349 347 345 342 340 339 338 341 342 341 340 340 339 339 336 335 335 334 333 330 327 323 321 321 322 324 329 332 329 331 334 335 335 337 340 338 340 341 340 340 332 330 338 341 340 340 340 340 340 341 343 344 344 345 346 347 348 349 349 348 348 348 349 348 349
356 357 356 356 356 361 358 358 359 360 361 361 360 359 358 356 354 353 352 350 348 348 347 345 342 340 339 338 340 341 343 342 343 343 339 334 333 334 334 332 331 327 325 323 323 325 326 331 331 328 333 335 336 337 339 339 345 344 339 342 335 331 335 339 340 340 340 340 339 338 340 341 342 342 342 341 342 343 345 347 348 348 348 348 348
357 356 356 356 356 357 358 358 358 360 361 360 360 359 358 357 355 354 353 351 348 346 347 347 345 342 340 338 338 338 341 342 342 343 343 339 332 336 335 335 333 331 329 325 321 327 331 329 331 332 334 335 337 337 339 339 343 345 341 341 338 337 337 337 339 339 339 338 337 337 336 336 337 338 338 339 339 340 342 343 345 346 346 346 347
356 357 357 356 356 356 358 358 358 359 360 360 360 360 359 358 356 354 353 352 350 347 346 348 347 344 342 340 339 338 339 340 341 342 341 342 339 334 337 336 334 332 331 329 327 327 331 331 332 333 334 336 337 337 337 340 342 349 342 341 340 343 338 334 339 338 337 336 336 335 334 333 333 335 337 338 339 341 343 342 342 342 343 343 345
356 357 357 357 356 356 357 358 358 358 358 359 360 359 358 357 357 355 354 352 351 349 348 346 347 345 343 342 341 340 339 339 340 341 341 341 341 337 336 336 335 334 332 330 328 328 330 333 335 337 338 337 337 338 337 338 339 343 346 340 339 338 338 337 337 339 337 335 334 333 333 332 332 334 335 337 338 341 343 343 341 339 339 339 339
356 356 357 357 357 356 356 357 357 358 358 359 359 359 358 358 357 357 355 353 351 350 349 347 346 347 345 343 342 341 341 340 340 340 340 341 341 340 336 336 334 335 335 332 329 327 328 328 333 335 336 338 335 338 337 336 337 341 343 341 340 338 338 339 339 340 341 337 333 331 332 331 331 332 333 335 337 338 339 339 339 337 337 336 334
355 356 357 358 357 357 356 357 357 357 358 358 359 359 358 358 357 357 357 354 352 351 350 348 347 347 345 344 343 343 343 341 341 340 340 340 340 340 339 337 335 334 336 334 330 328 328 328 330 333 334 336 335 335 337 337 338 340 341 340 339 341 341 339 339 340 341 338 335 332 331 331 332 332 332 334 335 335 336 334 333 333 333 331 330
354 355 356 356 357 356 356 356 356 357 357 358 358 359 358 358 358 357 357 356 355 353 352 351 349 347 346 345 344 344 343 342 341 341 341 340 339 339 339 338 336 335 335 336 333 330 329 328 329 333 334 334 335 335 337 339 337 337 339 340 339 339 340 341 340 339 339 337 336 333 332 331 331 331 331 332 332 331 330 329 329 330 329 329 328
355 355 356 356 356 356 355 355 356 356 357 358 358 358 359 359 358 358 358 357 356 355 353 353 355 349 347 346 346 345 343 342 342 341 341 340 340 339 339 338 337 336 336 336 335 333 330 329 330 331 335 334 335 336 337 336 336 337 338 338 338 338 338 340 341 341 340 337 336 335 333 332 332 331 331 331 331 330 329 328 327 328 328 327 326
356 356 355 355 356 356 356 355 356 357 357 358 358 359 359 359 359 358 358 358 357 357 356 354 354 352 349 347 347 346 345 343 342 342 342 341 340 339 338 338 338 337 335 335 336 334 332 331 331 330 329 334 334 333 335 336 335 335 335 337 336 337 337 337 339 341 342 341 339 338 335 333 333 331 331 331 331 329 328 327 326 326 325 324 321
356 356 356 355 355 356 357 357 356 356 357 358 358 359 359 359 359 358 358 358 358 357 357 356 355 354 352 350 348 347 346 345 344 343 342 342 342 340 340 339 339 337 336 335 335 334 334 333 332 332 331 332 334 333 334 336 335 335 334 333 334 336 337 336 336 339 340 340 340 339 338 337 336 334 327 326 328 329 328 327 326 325 324 321 319
355 355 356 355 354 355 356 357 357 356 356 357 358 358 359 359 359 359 359 358 357 357 356 357 356 356 355 353 351 349 348 347 346 344 343 342 342 341 341 340 339 337 336 336 334 334 334 333 332 332 332 332 330 334 334 333 332 331 333 333 332 333 334 336 337 337 338 339 338 339 338 336 335 333 328 327 328 329 328 328 329 328 326 323 320
355 355 355 356 355 353 353 355 357 357 356 356 357 358 358 358 359 358 358 358 358 357 356 356 356 356 356 355 354 352 351 347 339 340 340 338 343 341 341 341 340 338 337 336 335 334 334 334 333 333 332 331 332 332 333 333 332 332 333 332 331 332 334 334 336 338 339 337 338 337 336 336 334 333 332 330 330 330 329 330 331 333 329 323 322
353 354 354 354 354 354 353 352 353 356 357 357 350 339 344 357 357 358 358 358 358 357 356 356 355 355 356 356 357 347 339 338 337 333 331 331 332 341 343 342 341 339 338 337 335 335 334 333 333 333 331 331 332 333 333 335 336 335 331 331 331 331 328 331 333 335 339 338 336 335 336 337 335 333 332 331 333 337 332 331 330 331 332 327 324
352 352 353 352 353 354 354 353 351 352 355 357 341 333 334 337 353 357 357 356 357 357 356 356 355 355 355 356 356 354 344 338 340 332 331 329 329 329 332 335 336 341 339 337 337 336 335 334 335 334 333 332 332 334 334 335 336 335 334 332 332 331 330 328 327 332 340 339 336 335 335 338 337 334 333 333 334 335 336 334 333 332 329 328 326
352 352 351 351 352 353 353 353 353 352 352 342 335 332 332 331 336 356 356 356 356 356 356 356 356 355 355 355 355 356 356 353 351 346 336 330 327 327 328 329 330 331 334 339 338 336 335 334 334 334 334 333 333 334 334 334 334 335 335 334 332 331 330 329 329 329 334 341 336 334 334 336 338 336 334 335 336 336 337 334 332 331 329 327 326
351 351 351 351 350 351 353 352 352 353 353 340 332 330 330 330 329 340 356 355 355 355 356 356 355 355 355 354 354 355 357 346 349 351 350 345 329 324 325 326 327 327 328 330 332 340 339 336 335 334 335 335 334 335 336 336 336 334 334 334 333 332 332 331 331 332 334 341 337 334 333 335 337 336 334 336 337 337 338 334 332 331 329 327 327
349 349 350 350 350 350 351 352 352 353 353 341 330 327 327 327 328 332 353 355 355 355 355 355 356 355 355 354 353 353 354 355 354 352 352 350 348 343 336 334 336 335 327 325 325 327 334 339 337 335 337 338 336 337 339 338 335 334 333 333 334 334 333 332 334 335 335 343 338 335 332 334 336 336 334 335 336 337 337 334 330 329 329 327 326
348 348 349 349 350 350 350 351 351 352 354 337 328 325 324 324 325 327 349 354 355 355 355 356 356 356 356 356 355 354 354 354 355 352 352 351 350 348 346 342 340 340 341 340 337 336 336 338 339 339 339 339 339 339 339 340 339 338 337 336 336 336 336 337 336 333 334 343 341 337 331 335 335 335 336 337 336 335 336 330 328 328 328 326 326
350 349 349 351 351 351 351 350 350 350 353 333 327 324 323 322 324 337 347 351 353 354 354 354 355 356 357 357 356 355 355 355 345 333 338 352 351 349 348 347 345 344 343 336 335 335 339 341 340 341 341 341 335 340 341 340 340 340 340 339 337 335 334 333 332 335 334 339 342 338 333 332 334 335 335 337 335 333 334 335 329 326 326 325 325
349 349 348 350 352 352 352 352 350 350 352 338 325 322 321 321 323 341 346 349 352 353 354 354 355 355 355 356 356 356 356 355 342 332 329 330 350 350 349 348 348 347 346 347 333 327 327 326 327 328 329 330 329 326 325 328 338 338 338 335 333 334 332 330 331 332 333 336 340 340 336 332 332 334 333 332 332 332 331 331 331 327 324 323 323
349 349 350 349 351 353 353 353 353 352 352 343 322 319 319 319 327 344 347 349 350 351 352 354 355 354 355 347 355 356 355 355 337 329 328 331 345 349 350 349 348 347 348 349 348 342 326 324 325 326 327 328 328 328 326 324 325 330 338 333 335 335 332 332 329 331 333 335 338 341 334 333 332 333 332 325 328 329 331 330 329 327 324 320 319
351 351 351 350 350 351 353 354 350 352 354 345 319 319 317 317 327 345 349 349 349 350 351 352 354 354 355 352 345 344 349 347 333 328 325 329 345 348 349 349 348 348 349 350 348 347 346 340 337 335 336 331 334 334 336 326 325 332 338 339 338 335 333 332 332 331 330 332 338 341 334 333 330 331 331 323 323 324 326 329 328 326 325 325 324
Wind_Speed
5 5 4 4 4 4 4 5 4 5 4 4 4 4 4 4 4 4 4 3 3 3 3 3 3 2 2 3 3 4 4 3 4 5 5 4 3 6 10 9 8 8 8 8 8 8 8 7 7 7 8 8 7 7 7 7 7 7 6 6 6 6 5 5 4 4 4 3 3 2 3 3 2 2 1 2 2 4 4 3 3 4 4 3 3
5 5 4 5 4 4 4 4 5 4 4 5 4 4 4 4 3 3 4 4 4 3 3 3 3 3 3 3 3 2 2 3 3 4 4 4 4 4 11 9 9 8 8 7 7 7 7 7 7 7 7 7 7 7 7 7 7 7 7 7 6 6 6 5 5 4 4 3 3 3 2 2 2 2 2 2 3 3 4 5 5 5 5 4 4
5 5 5 5 5 4 4 4 4 4 4 4 4 4 4 4 5 5 4 4 4 4 4 4 3 3 2 3 3 3 3 3 3 2 2 4 4 3 5 10 9 8 7 7 7 6 6 7 7 7 7 7 7 7 7 8 8 8 7 7 7 6 5 5 5 4 4 4 4 4 4 3 3 4 3 3 4 4 5 5 6 6 6 6 5
6 5 5 5 5 5 3 2 3 4 4 4 4 4 5 4 3 2 2 3 4 4 4 5 4 4 3 3 2 4 2 2 3 3 2 3 3 1 2 4 9 8 8 7 7 7 6 6 6 6 7 7 7 7 7 8 8 8 8 8 7 6 5 5 4 4 4 4 4 4 4 4 4 4 5 5 5 5 5 5 5 6 6 6 6
6 6 6 6 5 4 5 5 4 3 3 4 4 4 4 4 3 1 1 2 3 4 4 4 5 5 5 4 3 3 3 3 3 3 3 2 3 2 2 2 2 7 7 7 8 8 8 7 7 7 7 7 7 7 7 7 7 7 7 7 7 7 6 5 5 5 3 4 4 4 5 5 6 5 6 6 6 5 6 6 6 6 6 6 6
6 5 5 5 4 3 4 5 5 4 4 4 4 4 4 3 4 4 4 5 6 6 5 6 5 5 5 4 3 2 4 3 3 3 2 2 3 2 2 2 2 1 2 7 7 7 8 8 8 8 7 7 7 8 7 8 7 7 7 7 7 7 6 6 5 5 5 5 5 5 5 5 5 6 6 6 7 6 6 6 7 6 6 7 6
5 5 4 5 4 4 4 5 5 4 5 5 5 4 4 3 2 2 3 6 6 4 7 8 7 7 6 5 4 4 4 4 4 2 3 3 4 3 3 3 2 2 2 2 5 8 8 8 8 8 9 9 8 8 9 8 8 8 8 7 6 7 6 5 5 5 5 5 5 5 6 6 6 7 7 7 7 6 8 8 8 7 6 8 8
3 5 5 4 5 5 5 4 4 4 4 3 2 3 2 0 0 1 1 2 1 3 4 6 5 7 6 5 5 5 5 4 4 4 4 4 4 4 3 3 3 3 3 2 2 3 8 8 8 9 9 9 9 10 10 10 10 8 8 8 7 7 6 6 6 6 6 6 6 7 7 7 7 8 8 7 6 5 7 7 7 7 6 6 7
4 4 5 4 4 5 4 4 3 4 3 2 1 1 0 1 2 2 1 0 4 4 4 5 8 8 7 6 6 5 6 5 6 5 5 5 5 4 3 2 2 5 3 3 2 1 5 8 8 8 9 9 8 9 10 4 10 8 10 8 8 7 6 6 6 6 6 6 7 7 8 8 7 7 8 8 7 7 7 7 8 8 7 7 7
5 4 4 4 4 5 4 3 4 4 3 3 3 0 1 2 0 2 0 2 4 5 6 5 5 6 7 7 6 5 4 5 5 5 5 4 4 4 4 3 4 3 3 3 2 2 2 5 8 8 8 8 9 9 9 9 10 9 7 9 8 7 8 7 7 7 7 7 7 7 8 8 7 7 8 8 7 6 7 6 7 6 5 6 6
5 4 5 4 4 4 5 4 4 4 4 3 2 1 0 1 0 1 2 3 3 4 6 6 5 5 6 6 6 5 5 4 4 4 5 5 5 4 4 4 4 3 3 3 3 2 3 2 2 2 3 8 8 9 8 8 7 7 7 7 7 8 8 7 6 7 6 6 6 5 5 6 5 5 6 6 6 5 5 4 5 4 5 5 5
5 5 5 5 4 4 5 4 4 4 4 3 2 2 3 1 1 1 1 3 3 3 4 7 6 5 5 5 4 5 4 4 4 5 4 4 4 4 4 4 4 4 3 3 3 3 3 2 2 2 2 4 8 8 8 8 6 6 6 6 7 6 7 5 3 8 6 6 5 4 3 3 4 4 5 4 4 4 4 4 4 4 4 4 5
5 5 5 5 5 4 4 4 5 4 5 5 4 3 2 2 1 1 1 2 3 1 2 5 7 5 5 4 2 2 4 4 5 4 4 4 5 5 4 4 4 4 4 4 4 4 4 4 4 3 3 2 4 7 8 6 6 6 6 6 7 6 6 5 8 7 5 4 4 2 2 3 3 3 3 3 3 3 4 4 4 4 4 4 5
6 5 5 5 4 4 4 5 5 5 5 4 3 3 2 1 1 1 3 1 1 1 2 4 4 4 5 3 3 2 1 3 3 4 5 4 5 5 5 5 5 5 4 4 4 4 4 4 4 3 3 4 3 2 3 3 4 6 6 6 7 7 6 5 5 4 3 3 3 1 3 2 2 2 2 2 3 3 3 3 3 4 4 4 5
7 6 6 5 5 4 5 5 6 5 4 4 4 4 3 3 3 3 0 1 0 1 2 3 3 3 2 4 3 4 1 1 2 4 5 5 4 5 5 6 7 6 5 4 4 4 4 4 4 4 4 4 4 2 1 3 3 6 6 7 7 7 7 5 5 4 3 3 3 3 2 3 2 1 2 2 2 3 3 3 4 4 4 5 5
8 7 5 5 5 5 4 5 6 5 6 5 4 4 3 3 3 2 3 1 0 1 1 0 4 6 2 1 3 5 5 3 5 5 5 6 7 7 5 6 6 5 4 5 6 5 4 4 4 4 4 4 3 3 2 1 5 8 9 8 6 5 7 6 5 4 4 3 3 3 3 3 3 2 2 2 2 3 3 4 4 3 3 3 3
8 8 7 6 5 5 4 5 6 6 5 5 5 5 5 4 5 3 3 4 1 1 1 1 4 3 5 3 2 2 3 3 5 2 3 4 7 6 6 6 5 5 6 5 4 5 4 4 4 3 3 4 3 3 3 3 4 3 6 8 7 4 6 6 6 6 5 5 5 5 4 4 4 3 3 3 3 2 3 3 3 2 2 2 2
8 8 7 6 6 5 4 4 5 6 6 5 5 4 4 4 5 5 4 3 4 3 2 1 1 2 4 3 5 3 3 2 4 2 1 3 5 5 7 6 5 6 5 5 5 5 4 5 4 4 4 4 4 4 4 4 3 3 4 5 9 6 6 6 7 7 6 6 6 6 6 5 5 5 4 4 4 3 3 2 2 2 2 2 2
8 8 7 7 6 6 5 5 5 5 5 5 5 6 6 5 3 4 6 4 5 4 4 3 1 1 1 0 1 1 5 5 3 3 4 1 4 4 5 5 6 6 6 6 6 5 4 5 5 5 4 4 4 4 4 5 5 5 8 8 9 9 8 8 8 8 8 7 7 7 6 6 6 5 5 4 4 4 3 3 3 3 2 2 2
9 8 8 7 7 6 6 5 5 5 5 6 6 6 5 3 5 5 5 5 6 7 5 5 5 2 1 0 0 2 1 3 4 7 5 5 3 1 0 1 3 7 8 7 7 7 6 5 5 6 5 5 5 5 5 5 4 4 6 10 10 10 10 10 9 9 9 9 8 8 7 7 7 6 5 5 5 5 5 5 4 4 3 3 2
8 8 8 8 7 6 6 5 5 5 5 5 5 5 6 5 4 4 5 4 5 6 7 7 4 5 3 0 2 1 1 2 3 3 4 4 2 4 3 1 1 3 5 6 6 6 7 7 6 6 6 6 6 6 6 6 5 5 6 12 12 12 11 11 10 10 9 9 9 9 8 8 8 7 7 6 6 6 6 6 5 5 4 3 3
7 8 8 8 7 6 6 7 6 6 5 6 5 5 5 5 5 6 5 5 3 6 7 6 6 3 4 5 3 1 2 1 1 2 2 2 5 4 5 6 5 5 4 6 7 7 6 6 6 6 6 6 6 6 6 6 6 6 8 14 14 13 13 11 11 12 11 10 9 10 9 9 9 9 9 8 8 7 7 6 6 6 5 4 4
7 7 8 8 8 7 7 7 6 5 6 5 6 6 5 5 5 5 6 6 5 4 3 4 6 4 4 5 6 6 6 4 4 2 3 2 2 1 1 4 8 5 7 7 7 7 7 6 7 6 7 7 7 6 6 7 7 8 12 14 14 13 13 14 13 14 11 10 11 11 11 11 11 10 10 10 9 8 8 7 7 7 6 6 6
7 7 7 8 7 7 7 7 6 6 6 6 5 5 5 4 5 6 6 5 5 5 4 4 4 4 4 5 6 5 4 4 5 5 6 4 5 3 3 2 1 4 2 5 4 6 7 7 7 7 8 7 7 8 7 7 8 13 11 14 14 14 14 14 14 13 12 11 11 11 11 12 12 11 11 10 10 9 9 8 8 8 8 7 7
8 8 8 9 8 7 8 8 7 6 6 5 5 5 5 5 6 6 6 6 6 6 6 5 5 5 6 5 5 5 5 4 5 5 3 5 5 3 3 1 2 2 2 5 5 5 6 7 7 7 8 8 7 7 7 7 7 11 13 10 15 14 15 15 14 14 13 13 13 12 12 11 10 10 10 10 10 10 10 10 10 9 9 8 8
10 10 9 9 8 8 8 8 7 6 6 6 6 5 5 6 6 7 6 6 5 6 6 5 4 4 4 6 4 5 5 4 5 5 5 4 2 4 3 0 1 3 0 4 2 3 4 6 6 6 7 8 8 8 8 8 8 12 15 9 13 15 15 15 15 15 15 15 14 14 13 12 12 12 11 11 11 11 10 10 10 10 9 9 9
10 9 8 9 9 8 8 8 8 8 6 6 6 6 5 5 6 7 6 5 6 6 5 5 6 4 4 5 5 4 5 5 4 5 5 6 5 5 5 3 1 1 1 2 3 6 6 5 8 7 8 8 8 8 9 8 10 13 15 10 8 14 15 15 15 15 15 15 15 15 14 13 13 13 13 12 11 12 11 10 10 10 10 10 9
8 8 8 9 9 9 9 9 8 8 7 7 7 6 6 6 6 6 7 4 6 6 6 6 6 5 5 4 4 6 5 4 4 5 5 5 5 4 5 5 5 3 1 2 3 6 5 4 4 8 9 9 9 9 10 10 8 12 15 8 8 8 14 15 15 15 15 15 15 15 15 15 14 14 13 13 12 11 10 10 9 9 9 10 10
8 8 9 8 9 9 9 9 9 8 7 7 7 6 6 7 7 7 7 6 6 7 6 6 6 5 4 5 6 6 5 4 3 3 5 3 5 6 6 7 6 5 4 5 6 6 5 6 5 8 10 9 9 8 8 8 9 11 9 8 8 7 12 16 16 16 15 15 15 15 15 15 15 15 14 14 13 13 12 11 10 10 10 10 10
8 8 9 10 9 9 9 9 9 8 9 8 8 7 7 7 7 7 7 7 7 5 6 7 6 5 5 4 4 5 4 4 5 4 4 5 5 6 6 6 7 7 6 7 7 5 5 4 5 4 6 9 9 7 8 9 11 13 9 9 9 9 13 16 17 17 16 16 16 15 15 15 15 15 14 14 14 13 13 12 11 10 10 11 11
8 8 9 9 9 9 9 9 9 9 9 9 8 8 8 7 7 7 6 7 7 7 6 6 6 6 6 6 5 6 5 5 5 4 4 4 6 6 6 5 6 6 7 5 4 6 5 7 6 4 6 10 9 9 7 8 10 13 10 9 9 12 16 14 18 18 17 17 16 16 16 16 15 15 14 13 13 13 13 12 12 11 11 11 12
8 9 10 10 10 10 10 10 10 10 9 9 9 9 8 8 7 7 7 7 8 8 7 6 5 6 6 7 7 7 6 5 6 5 6 5 5 6 6 6 6 7 7 6 8 9 5 6 6 5 5 7 8 9 9 7 8 15 9 9 10 13 11 9 15 18 17 17 16 16 16 16 16 16 15 14 13 13 11 12 12 12 12 11 11
9 10 11 12 12 11 11 10 11 10 10 10 9 8 8 9 8 8 7 8 9 8 7 7 6 6 8 8 8 8 6 6 7 7 6 6 5 6 5 6 7 6 7 7 8 9 5 3 4 5 4 5 5 9 10 9 8 8 9 8 9 9 9 8 8 14 17 17 16 16 16 16 17 16 15 14 14 13 10 12 12 12 12 12 11
10 11 12 11 11 12 11 11 11 11 11 11 10 9 9 9 9 7 8 9 9 9 7 8 8 7 8 9 9 8 7 8 8 8 8 7 6 6 6 7 7 7 6 7 8 6 10 3 4 4 2 4 6 5 10 10 9 6 9 8 7 8 9 8 8 8 15 17 17 17 16 17 17 16 15 15 15 14 13 13 12 12 12 11 10
10 11 11 11 12 12 11 11 11 11 11 11 10 10 10 11 11 10 10 10 11 11 10 11 10 9 8 9 10 9 7 8 9 9 8 8 7 7 8 7 7 7 7 7 6 7 8 8 4 5 5 4 7 7 8 8 8 8 10 9 9 7 7 8 8 7 12 15 16 16 17 17 16 16 16 16 15 14 14 13 13 12 11 11 10
12 11 11 12 11 11 12 11 11 11 11 11 11 11 12 12 12 12 11 11 11 11 12 11 11 10 11 10 11 10 9 10 10 9 8 7 8 8 8 8 7 8 7 6 7 7 6 7 5 7 5 5 6 5 5 6 7 7 8 8 7 8 8 7 8 8 9 14 16 17 16 16 17 16 16 16 15 15 14 13 12 12 11 11 10
12 11 11 10 11 11 12 12 12 12 13 13 12 12 12 12 13 12 12 11 11 12 12 12 11 12 12 13 13 11 10 11 10 9 9 10 9 8 9 8 8 7 5 6 8 6 7 9 7 4 4 5 5 6 6 7 7 6 5 7 8 8 8 8 7 8 11 15 16 17 16 16 16 16 16 16 16 15 14 13 13 12 12 11 10
12 12 12 11 11 13 13 13 13 13 12 12 13 14 14 13 12 12 12 12 12 12 12 12 12 12 12 13 13 11 11 12 12 11 10 11 10 10 10 9 8 6 7 6 6 7 8 10 8 8 4 6 5 6 6 7 8 7 7 6 5 6 7 8 8 7 6 6 6 8 11 12 14 16 16 16 16 15 14 13 13 12 12 12 10
13 12 13 13 12 13 14 13 13 13 13 13 13 13 13 12 12 12 12 12 12 12 12 13 13 12 13 12 12 11 12 13 13 12 11 10 10 12 12 11 9 7 7 7 7 8 8 9 9 8 8 6 6 8 6 6 7 8 9 7 8 8 6 8 9 7 6 7 9 12 11 11 13 12 14 16 16 16 15 14 13 14 13 12 11
13 13 14 14 13 12 13 13 13 12 12 12 12 12 12 13 12 13 13 13 13 13 12 12 12 12 13 13 12 12 13 12 13 12 11 11 10 10 10 9 8 8 9 8 7 8 9 9 10 10 8 8 5 5 2 3 6 7 8 9 12 10 9 8 9 8 7 7 7 7 8 9 10 11 12 13 15 15 14 13 14 13 14 13 13
12 13 13 13 13 13 12 12 13 11 11 12 11 12 13 14 13 14 14 14 14 13 13 12 12 12 12 12 12 12 14 16 18 16 14 13 10 11 11 9 10 10 9 9 9 8 9 10 10 8 8 8 8 7 8 9 11 14 8 7 9 8 7 7 8 7 7 8 8 6 7 8 7 7 7 7 8 12 12 14 11 14 14 13 14
14 13 13 13 13 13 13 13 12 11 11 10 14 20 17 14 14 13 12 13 13 13 13 12 12 12 13 12 13 18 18 18 18 19 19 18 18 15 12 11 11 11 11 11 11 10 10 12 12 11 11 12 11 11 12 13 11 7 6 8 10 9 3 7 6 6 7 7 7 9 9 6 7 7 6 8 8 8 7 8 9 10 12 15 15
15 14 13 14 13 13 14 14 13 12 11 12 19 18 20 21 15 13 13 12 12 12 12 12 12 13 12 13 12 14 15 15 17 20 20 20 20 20 21 18 15 14 12 13 13 12 11 12 12 11 12 14 13 12 13 12 9 11 12 9 10 7 9 9 11 5 7 10 9 9 10 6 7 8 8 8 8 7 7 9 13 15 15 15 17
14 13 14 15 14 13 13 13 14 13 13 16 19 19 20 21 18 14 12 11 10 11 11 12 12 11 12 12 11 10 11 14 15 15 17 20 21 22 22 22 20 20 19 16 14 11 12 13 13 13 12 13 14 12 12 10 12 11 11 9 10 11 11 11 11 12 6 11 10 9 11 5 7 8 8 9 8 8 9 12 15 15 15 15 16
12 13 15 14 14 14 13 14 14 15 14 18 19 19 19 20 21 17 11 11 11 11 11 12 12 12 11 11 11 10 11 17 15 14 13 15 19 22 22 22 22 21 21 23 21 17 13 14 14 15 15 14 14 14 14 14 10 10 9 10 10 10 12 13 13 12 7 11 10 9 11 7 7 8 10 9 8 7 8 11 15 15 15 16 16
13 14 14 15 14 14 14 14 15 14 15 16 19 20 19 20 20 17 13 13 12 12 12 12 12 13 13 12 12 12 12 11 11 13 13 14 13 13 14 14 15 19 21 24 24 23 19 15 14 16 17 12 15 16 14 10 10 13 12 13 12 12 12 15 17 15 5 8 12 8 8 8 7 8 10 9 7 7 7 10 16 16 16 16 16
14 15 15 15 15 15 15 15 14 13 13 18 18 20 20 20 20 17 13 12 11 12 12 12 13 13 13 13 13 13 13 12 11 12 12 13 12 12 13 14 16 17 17 19 18 16 16 16 16 18 18 15 16 17 12 9 15 14 14 16 16 16 15 10 7 4 5 8 9 8 12 8 6 8 10 8 6 7 6 9 15 16 16 15 15
12 12 12 12 14 14 15 15 15 15 15 18 19 19 21 20 19 12 12 13 13 13 12 12 13 12 12 13 13 13 14 13 14 17 15 12 12 14 15 15 14 15 17 21 21 19 19 18 18 19 18 18 18 16 14 12 11 12 11 10 7 6 6 9 13 8 10 7 10 12 9 7 7 10 9 7 6 7 7 7 11 15 15 15 14
13 13 14 14 14 14 14 14 15 16 15 15 18 19 19 19 14 10 11 11 12 13 13 13 12 12 12 13 13 13 13 13 15 16 17 15 13 15 15 15 14 14 18 17 16 20 23 25 25 25 26 24 21 20 18 20 16 12 9 10 14 9 9 13 13 10 11 7 10 11 9 9 6 9 8 6 7 8 8 8 6 10 15 14 15
14 15 14 12 12 13 14 15 15 15 15 12 15 16 18 18 17 13 11 11 13 13 13 12 11 12 13 18 16 14 14 14 15 17 17 14 13 15 15 15 16 18 20 13 6 13 22 24 25 26 26 24 23 22 19 18 20 16 14 17 15 10 14 14 14 12 9 9 11 10 8 12 6 7 8 3 3 5 7 7 7 7 10 13 16
13 11 10 10 11 11 12 14 15 15 12 9 13 16 18 18 16 11 11 11 12 12 11 12 12 12 12 12 17 17 16 16 17 16 17 15 14 15 15 15 18 20 21 8 11 14 10 11 14 17 19 23 21 20 21 25 23 22 20 20 13 13 15 14 14 9 9 12 10 14 13 10 8 8 9 4 6 4 4 7 7 6 6 7 8
Wind_Direction
207 211 186 202 210 201 193 203 199 208 197 210 195 188 190 191 189 184 191 173 171 168 178 190 197 194 190 169 185 177 156 148 146 149 156 167 175 179 176 177 177 172 163 160 160 161 166 166 168 170 171 167 169 171 171 172 172 174 176 176 177 177 176 177 181 183 182 183 194 206 196 172 180 195 247 289 303 327 349 357 354 350 346 350 346
204 210 189 209 211 210 204 204 207 204 187 198 208 190 196 205 202 190 188 188 170 184 171 200 205 197 187 181 188 180 149 144 151 149 155 154 176 185 176 179 182 175 167 168 166 169 172 170 169 174 176 174 180 184 185 188 185 186 189 189 190 190 186 189 190 192 193 184 196 209 215 215 246 261 260 270 292 330 323 322 315 319 320 328 328
197 200 200 202 213 209 204 199 198 206 191 192 188 198 203 205 199 189 188 189 194 184 164 185 196 199 186 187 185 169 163 145 128 106 125 161 174 186 177 181 184 180 174 175 176 181 182 181 175 177 179 184 188 192 193 200 200 194 199 201 200 199 199 193 206 204 207 190 192 205 215 231 245 259 272 289 291 286 291 295 301 307 312 316 316
194 193 195 194 202 202 156 135 208 194 191 182 191 199 203 217 221 195 181 181 195 190 179 171 181 197 170 210 184 178 162 123 113 128 142 155 162 179 177 186 187 186 183 188 191 195 194 192 188 183 189 192 194 198 201 203 206 206 209 211 212 205 207 207 218 223 227 213 216 223 229 236 246 255 261 265 273 273 278 284 288 297 307 307 308
186 185 187 186 183 177 160 162 213 180 194 188 194 202 200 198 217 213 194 208 221 224 188 192 172 188 186 200 204 181 127 113 129 163 165 149 147 157 186 180 187 186 188 194 200 203 205 204 197 198 198 202 202 202 206 211 213 218 218 215 216 219 214 217 228 238 234 250 234 236 239 243 248 251 255 263 267 271 275 276 287 288 286 290 296
169 179 175 168 166 158 150 160 177 184 180 185 196 199 205 187 196 168 196 199 216 209 177 197 191 169 198 179 203 149 124 133 164 175 144 152 151 164 170 155 152 162 181 199 203 206 211 211 210 206 207 210 208 213 211 215 217 216 223 221 222 221 222 222 230 238 245 248 252 256 262 267 273 273 272 270 268 274 273 278 279 289 286 286 287
168 160 167 159 152 153 171 172 168 157 158 189 189 188 186 206 201 198 198 197 214 218 182 188 183 172 194 170 178 152 153 162 158 169 169 160 159 170 168 158 156 166 175 197 210 207 214 218 216 212 213 213 215 218 216 219 222 218 224 221 224 224 224 228 229 232 238 242 250 258 262 260 260 263 268 267 280 301 301 297 297 292 316 313 312
158 151 158 167 154 168 190 175 163 143 174 179 160 170 193 157 232 172 340 327 71 60 131 171 173 177 181 168 167 176 161 165 160 177 170 151 167 172 165 166 173 175 193 188 205 209 218 220 216 221 218 221 223 228 226 223 221 229 227 223 221 230 230 234 237 244 245 249 253 253 252 258 264 278 278 280 279 279 287 289 293 294 291 292 298
166 156 144 162 157 158 194 175 161 145 146 148 192 208 108 47 345 356 93 30 80 106 110 130 157 175 170 164 173 176 169 168 174 174 155 157 166 170 159 168 187 196 185 191 191 226 228 227 226 222 224 218 220 233 234 220 257 220 235 239 241 229 245 234 239 241 251 255 263 269 271 266 266 269 275 276 274 277 278 305 300 296 294 292 293
170 163 147 168 165 163 182 159 144 139 137 150 206 234 77 99 328 315 303 117 79 96 94 102 124 144 151 151 165 170 164 170 175 164 152 158 162 166 175 175 197 202 181 188 191 194 226 240 229 228 227 224 218 225 235 221 231 240 231 235 231 258 239 236 236 243 250 256 258 257 261 269 268 267 273 283 289 274 280 267 276 288 304 296 300
175 168 152 166 162 166 169 176 144 142 136 147 198 262 187 112 144 332 15 82 108 105 118 108 102 114 121 139 154 162 167 173 157 146 163 169 173 175 158 185 194 195 185 184 187 190 217 245 275 247 248 230 225 224 226 233 236 237 238 236 244 222 244 243 257 246 245 249 251 263 274 271 270 267 265 262 268 279 284 291 277 279 285 291 291
177 175 159 165 172 175 171 170 141 143 135 151 199 215 225 231 212 175 28 37 43 76 97 104 85 87 116 139 155 153 165 164 154 169 166 171 173 154 179 186 194 195 190 188 182 198 204 215 221 223 236 252 234 230 224 223 228 235 229 235 236 238 240 236 233 254 240 243 253 259 257 270 254 260 271 283 283 287 285 300 302 296 310 315 321
175 175 175 177 181 168 173 165 148 164 156 182 194 202 222 188 207 72 110 48 38 10 35 98 104 71 61 84 90 178 170 157 172 166 175 174 169 166 181 184 196 195 196 178 188 196 199 206 214 206 210 220 250 238 226 226 221 229 225 227 237 227 234 228 221 231 227 238 242 239 281 279 274 282 279 279 311 332 331 334 332 325 334 343 353
176 179 182 182 188 171 186 175 165 180 182 174 182 197 186 222 111 58 32 123 141 219 190 84 32 130 124 89 78 49 183 160 165 189 183 178 178 175 176 186 194 194 190 178 192 195 200 205 210 206 204 205 228 255 236 228 233 218 227 231 230 230 228 232 221 195 209 222 224 206 225 238 257 271 273 4 23 6 18 9 9 20 9 19 27
180 180 179 190 192 178 185 178 175 172 156 168 173 195 191 185 157 149 141 29 130 235 190 125 145 117 96 91 126 117 81 34 258 215 191 186 181 188 180 190 194 190 185 175 187 198 203 203 204 206 202 203 204 215 212 196 219 215 223 230 223 224 222 208 203 197 205 219 197 209 195 220 226 213 81 91 63 46 48 40 53 47 51 57 39
184 182 182 187 193 194 180 173 177 176 164 170 176 199 197 174 166 156 129 132 40 115 37 164 128 125 126 162 181 131 150 197 190 219 198 188 187 196 186 195 190 177 164 187 193 196 202 187 202 202 201 193 189 183 187 139 224 214 213 221 214 218 204 195 185 188 194 181 171 182 183 184 166 155 148 121 100 102 90 95 88 93 80 63 72
183 183 181 190 195 196 187 176 173 179 167 168 178 195 203 184 166 155 160 150 172 139 16 69 130 170 137 108 61 95 204 213 164 246 185 189 212 196 192 196 180 173 182 192 189 189 178 187 202 198 194 194 186 183 181 202 225 216 210 206 199 228 192 184 177 182 185 180 184 183 188 186 188 188 184 176 160 150 139 119 117 112 106 102 80
183 181 182 184 192 198 196 180 179 177 176 174 181 185 209 184 178 173 189 193 149 109 76 344 159 151 155 157 165 172 183 213 103 195 191 224 216 201 193 195 179 180 183 177 188 192 175 191 198 199 195 191 188 185 190 202 216 182 177 202 191 205 177 175 186 186 187 184 183 188 185 191 191 191 184 179 174 172 160 141 134 120 114 104 86
184 183 182 182 187 196 198 197 182 182 183 168 176 189 200 193 169 159 185 160 124 131 156 188 19 335 67 63 157 137 148 129 190 124 145 272 216 201 202 198 185 181 187 188 189 186 194 188 194 196 202 190 187 192 189 195 191 177 183 195 183 187 174 182 192 190 186 185 186 187 186 185 185 184 182 184 178 171 166 160 152 149 141 138 110
180 184 183 183 183 192 199 196 188 190 181 183 185 191 198 192 174 178 171 168 154 149 172 169 151 215 125 157 76 70 149 115 138 161 156 154 211 290 34 218 207 196 193 188 189 190 189 198 196 194 193 193 193 191 191 192 190 189 190 190 184 186 185 190 194 191 189 186 188 189 187 189 189 187 189 185 178 174 175 180 181 180 178 171 183
185 182 184 183 186 190 192 197 193 190 186 186 195 182 192 190 155 152 171 181 171 166 150 189 173 179 115 21 65 49 26 75 123 102 135 138 203 178 173 68 183 239 221 202 197 191 189 196 201 189 187 192 196 196 192 190 192 190 201 193 189 192 191 196 194 197 194 193 190 193 195 195 195 193 194 193 189 188 190 193 197 200 205 206 207
191 186 182 185 187 187 191 197 199 187 184 191 193 188 192 193 175 175 174 168 189 163 170 175 181 170 167 164 131 98 66 52 48 87 52 104 167 197 182 166 187 234 205 212 203 201 193 198 195 189 197 195 196 198 194 194 196 194 203 199 195 194 194 197 199 201 201 201 198 198 199 202 200 201 202 199 199 202 204 209 207 217 225 232 237
187 190 187 184 187 188 192 198 198 187 187 185 196 193 189 184 181 167 171 165 171 168 153 170 168 160 167 174 172 170 172 171 193 186 141 132 79 249 205 190 188 200 222 208 203 203 197 196 191 195 198 202 199 195 200 203 198 204 203 203 199 197 196 197 199 204 205 203 205 205 207 206 206 207 207 207 208 210 213 215 222 230 237 238 243
188 187 192 189 185 191 193 192 196 193 191 191 194 195 178 170 168 171 179 175 165 162 160 180 175 155 181 189 189 178 175 164 190 167 163 183 152 194 192 209 254 231 235 194 212 203 200 199 202 196 199 202 204 199 200 203 208 207 204 209 205 202 202 200 201 206 209 206 206 211 213 211 213 214 213 213 216 219 221 225 229 235 237 238 243
197 191 195 190 186 189 192 193 197 196 190 188 197 191 174 171 174 175 174 176 179 171 169 191 180 161 188 201 188 176 190 196 153 168 161 139 153 173 258 200 200 226 229 163 201 212 206 206 200 202 198 205 206 202 201 202 210 210 202 211 209 208 206 204 204 207 212 212 210 214 217 219 218 218 221 223 223 225 227 230 232 234 239 248 249
192 198 193 189 190 193 192 195 196 192 186 190 194 191 178 179 177 178 186 188 176 176 180 189 200 184 169 170 203 189 213 180 177 149 152 135 145 184 198 279 132 214 266 181 204 162 247 228 214 203 204 205 208 204 200 203 208 213 204 201 213 211 209 208 206 209 212 215 216 215 218 221 222 224 224 227 230 230 233 235 240 245 250 253 258
195 198 188 189 190 189 192 194 197 196 187 186 194 192 186 182 183 186 186 183 183 178 186 180 196 197 183 182 191 197 216 202 171 193 163 173 168 180 162 198 285 13 159 223 229 211 208 212 203 209 209 206 208 207 203 205 208 208 207 201 210 214 213 212 211 212 215 217 218 220 221 223 226 228 228 229 230 234 236 239 244 249 257 262 268
195 186 195 188 188 189 190 196 196 197 194 188 188 191 189 185 189 186 191 186 182 189 196 187 199 197 188 197 182 211 211 210 196 207 196 191 192 170 167 162 175 247 318 229 233 242 220 202 219 217 210 209 213 209 208 203 209 209 207 201 207 215 216 215 216 217 218 220 221 222 223 225 227 229 231 232 232 234 237 240 245 250 254 260 264
189 190 191 192 190 187 190 193 194 197 196 194 192 192 188 190 190 192 196 190 186 195 193 196 208 193 191 187 195 201 215 203 206 213 221 212 207 192 182 179 170 165 201 224 237 214 246 204 192 226 209 214 215 214 209 209 211 205 208 205 205 211 215 215 218 221 221 222 224 225 226 228 230 231 233 233 234 235 236 236 240 245 249 253 257
188 189 191 192 191 189 189 191 193 195 199 198 196 193 186 196 197 197 198 185 192 197 197 198 204 198 202 199 198 206 220 203 209 207 196 204 211 201 197 192 168 186 187 195 247 212 236 251 210 218 205 214 214 215 208 212 211 207 206 206 205 212 216 215 218 221 222 223 224 225 227 230 231 233 234 235 237 238 238 239 239 241 245 249 251
187 187 189 193 191 192 191 193 192 196 199 202 199 196 189 194 199 201 197 190 194 200 202 195 203 190 204 211 210 219 215 216 217 217 219 186 210 211 210 193 194 187 184 178 222 266 189 222 242 223 192 209 207 209 212 215 213 209 206 206 209 213 214 218 219 222 223 223 224 225 227 230 232 233 234 234 236 238 240 239 240 242 245 249 251
191 189 189 192 193 193 194 193 194 196 198 203 200 200 195 199 196 199 199 193 200 205 205 203 198 196 200 210 214 216 219 218 222 217 216 214 202 209 208 197 207 196 177 185 210 247 214 209 229 245 214 208 206 205 214 214 215 209 204 206 211 213 216 222 223 223 225 226 225 224 225 228 232 234 235 236 236 237 231 236 237 240 243 247 249
188 190 191 193 194 196 194 195 195 196 198 200 200 199 200 204 201 201 196 194 203 210 203 206 207 198 204 209 215 219 210 212 223 224 219 216 208 210 212 198 205 198 180 190 212 249 284 231 229 240 231 190 215 211 211 211 208 210 209 209 207 209 213 217 221 223 225 228 227 226 225 227 230 233 234 235 235 236 227 232 235 236 239 243 247
190 192 194 194 194 195 196 197 198 198 199 200 198 195 201 205 206 201 201 197 203 209 203 210 208 207 204 211 218 217 208 215 218 221 219 217 209 213 217 206 210 205 201 180 215 216 249 283 267 261 267 191 227 204 207 207 216 205 209 213 213 210 213 212 217 225 223 225 227 225 225 226 228 231 232 233 234 234 234 234 234 233 235 238 241
198 197 196 195 195 195 197 198 199 200 200 201 199 197 201 204 205 205 203 202 204 205 205 211 209 205 207 213 219 212 206 217 223 225 220 220 212 214 220 211 215 213 204 204 188 222 235 250 226 251 235 216 212 222 218 219 211 201 208 216 214 214 217 212 213 221 221 220 220 222 223 226 227 227 228 230 230 230 229 229 229 228 229 232 232
201 204 201 200 197 198 201 201 200 202 201 202 200 201 203 203 206 208 206 206 208 210 210 210 208 204 209 213 219 211 206 214 223 224 223 221 218 218 222 220 217 219 210 205 212 213 224 242 245 216 232 215 237 244 230 224 215 215 217 223 221 221 218 215 214 216 217 212 215 218 221 224 225 224 223 225 227 227 224 224 223 221 222 225 226
204 203 206 202 202 201 204 205 203 203 203 202 202 204 206 206 207 208 209 209 211 213 215 213 207 208 210 214 217 208 206 215 223 223 220 220 222 220 224 223 219 220 215 209 218 214 222 232 251 231 226 232 232 229 212 213 236 241 237 229 223 223 225 223 219 220 218 210 213 218 221 224 226 224 222 223 225 225 222 219 218 217 217 221 219
205 205 203 202 203 205 207 208 206 206 205 203 203 205 206 207 208 211 211 211 212 214 217 217 213 210 214 217 218 208 207 212 221 220 218 220 221 224 227 227 221 212 215 221 216 220 223 236 236 257 230 225 245 239 221 213 219 232 242 246 254 241 228 233 231 226 218 212 215 225 229 232 231 229 225 224 224 224 221 215 214 213 214 218 207
207 206 206 204 205 206 209 207 208 207 206 204 205 207 208 207 208 210 213 214 215 215 218 218 217 216 217 220 220 213 211 215 220 220 218 219 219 225 225 227 221 210 218 219 214 220 226 236 243 238 246 235 215 237 237 214 225 217 218 228 243 233 227 224 233 231 227 227 223 216 214 213 217 219 223 223 223 223 219 214 213 210 212 211 202
210 208 207 207 208 207 209 209 211 207 206 207 208 208 208 208 208 210 212 214 217 218 219 220 220 220 219 221 222 218 217 218 219 223 215 218 218 226 228 225 221 213 220 223 218 221 228 236 237 241 235 240 245 250 249 189 231 252 227 213 225 224 226 226 227 224 228 227 230 231 230 226 230 228 229 226 225 223 220 217 215 212 212 206 201
212 212 211 209 209 211 212 211 212 208 206 208 208 208 208 210 209 212 211 214 215 219 222 222 221 221 223 223 224 222 219 220 220 221 219 214 212 221 226 217 219 216 221 222 222 219 229 234 242 238 241 235 234 229 228 218 215 224 214 205 236 229 220 228 238 225 219 216 227 223 221 204 209 217 211 215 221 218 225 217 218 215 213 204 202
211 211 212 211 210 210 213 215 213 210 210 211 212 208 206 207 210 213 214 215 216 218 222 225 227 224 224 224 226 224 221 220 221 222 224 221 218 218 219 211 215 214 218 220 219 218 222 229 233 230 231 235 228 221 227 227 224 228 217 201 225 228 193 240 258 232 212 212 217 227 231 203 200 216 206 217 226 206 214 206 216 211 213 206 204
210 210 210 212 211 211 212 214 214 212 214 216 213 207 209 209 208 211 214 217 216 219 221 223 227 228 229 227 230 227 224 224 225 223 223 223 223 224 226 219 212 209 215 218 223 216 219 228 233 229 231 236 233 226 227 231 220 218 220 210 219 206 206 217 239 244 198 197 216 224 238 207 190 209 213 217 217 208 208 211 211 210 210 205 204
210 209 211 213 212 212 213 215 216 215 217 218 213 209 209 210 209 211 214 220 219 219 221 223 227 230 232 232 230 230 226 223 225 226 227 227 226 226 228 227 224 219 216 214 218 218 219 228 232 230 229 232 237 228 229 224 227 222 223 213 212 209 214 217 226 229 207 179 201 212 236 203 190 212 216 220 217 210 208 208 208 209 210 207 204
208 210 214 212 213 213 214 215 217 218 220 216 212 209 209 209 210 211 216 216 220 223 221 223 227 228 231 234 236 231 232 225 224 226 225 229 231 232 231 232 232 228 227 228 224 220 215 224 230 235 226 228 234 236 221 221 217 224 222 222 223 220 220 223 228 232 219 183 185 207 229 215 179 211 219 222 213 210 211 208 208 208 208 207 208
212 215 215 215 214 213 215 217 219 220 221 218 208 208 208 209 209 206 220 217 219 224 224 224 226 228 229 231 234 237 235 230 225 224 228 230 230 231 236 237 238 239 238 236 233 230 228 226 228 236 237 218 231 236 228 209 204 219 216 223 219 221 222 225 225 226 206 164 185 192 229 221 191 202 220 223 205 209 205 200 204 207 206 207 209
212 214 214 214 215 214 215 218 223 223 225 217 206 207 207 207 208 202 219 221 224 225 226 227 228 228 230 230 234 238 238 234 229 223 225 229 231 234 233 233 234 237 236 235 232 229 230 234 235 238 242 231 233 239 234 206 214 219 215 220 216 216 223 238 274 255 206 196 185 176 225 215 174 203 223 216 204 213 207 206 202 203 207 209 206
216 217 220 220 219 217 216 217 221 227 228 214 206 205 205 207 202 203 216 223 226 229 229 228 230 232 232 232 234 239 240 239 234 223 222 224 230 235 236 238 237 237 240 236 229 224 227 230 231 237 240 237 233 235 230 219 221 224 229 236 240 235 225 231 234 219 223 198 197 195 219 220 182 197 220 210 188 211 213 210 209 206 207 208 201
213 214 217 216 218 217 216 215 219 226 232 215 203 204 203 203 192 210 215 222 228 232 234 232 232 233 233 231 233 240 242 242 235 223 223 215 234 237 239 242 241 242 245 242 225 228 232 235 238 241 244 246 243 240 235 223 218 212 216 225 230 203 210 228 233 220 227 187 213 206 205 226 191 192 212 201 191 204 208 212 209 209 209 205 199
215 217 217 219 220 219 218 218 217 222 229 219 196 200 199 196 193 204 213 218 228 231 236 238 237 237 235 232 232 237 242 246 236 225 221 207 230 238 241 245 248 248 251 244 224 229 226 231 237 242 247 249 249 249 244 232 222 208 209 224 221 195 220 222 230 221 224 207 210 187 194 225 168 186 194 188 177 225 203 202 197 205 206 206 201
219 220 218 221 223 223 223 223 220 222 229 214 185 191 196 195 196 209 211 221 228 231 234 239 239 241 243 238 234 235 242 247 241 230 222 207 227 235 238 242 248 252 253 245 232 240 231 224 237 240 246 245 242 240 239 231 222 214 217 226 218 205 220 221 224 219 230 231 197 173 201 213 171 202 171 147 212 247 200 191 188 186 180 188 200